| time (UTC) | temp C | wind direction | speed KPH | gust KPH | rain 1hr cm | rain 24hr cm | rain mn cm | humidity % | barometer mb |
| 20260506015902 | 27 | 254 | 1.6 | 12.9 | 0.00 | 0.00 | 0.00 | 79 | 1006.9 |
| 20260506015403 | 27 | 148 | 1.6 | 19.3 | 0.00 | 0.00 | 0.00 | 79 | 1006.7 |
| 20260506014902 | 28 | 307 | 1.6 | 19.3 | 0.00 | 0.00 | 0.00 | 79 | 1006.7 |
| 20260506014557 | 27 | 58 | 0.0 | 14.5 | 0.00 | 0.00 | 0.00 | 78 | 1006.9 |
| 20260506014402 | 28 | 200 | 1.6 | 12.9 | 0.00 | 0.00 | 0.00 | 78 | 1006.7 |
| 20260506014120 | 28 | 49 | 0.0 | 14.5 | 0.00 | 0.00 | 0.00 | 78 | 1006.7 |
| 20260506013403 | 28 | 218 | 1.6 | 19.3 | 0.00 | 0.00 | 0.00 | 78 | 1006.6 |
| 20260506013055 | 27 | 248 | 4.8 | 19.3 | 0.00 | 0.00 | 0.00 | 77 | 1006.9 |
| 20260506012903 | 28 | 331 | 6.4 | 19.3 | 0.00 | 0.00 | 0.00 | 78 | 1006.6 |
| 20260506012403 | 28 | 354 | 1.6 | 19.3 | 0.00 | 0.00 | 0.00 | 77 | 1006.6 |
| 20260506011903 | 28 | 95 | 3.2 | 19.3 | 0.00 | 0.00 | 0.00 | 77 | 1006.3 |
| 20260506011548 | 28 | 323 | 1.6 | 19.3 | 0.00 | 0.00 | 0.00 | 77 | 1006.6 |
| 20260506011402 | 28 | 290 | 1.6 | 12.9 | 0.00 | 0.00 | 0.00 | 77 | 1006.3 |
| 20260506010902 | 28 | 328 | 1.6 | 12.9 | 0.00 | 0.00 | 0.00 | 77 | 1006.2 |
| 20260506010402 | 28 | 11 | 0.0 | 14.5 | 0.00 | 0.00 | 0.00 | 77 | 1006.1 |
| 20260506010048 | 28 | 105 | 1.6 | 17.7 | 0.00 | 0.00 | 0.00 | 76 | 1006.2 |
| 20260506005902 | 28 | 354 | 1.6 | 19.3 | 0.00 | 0.00 | 0.00 | 76 | 1006.1 |
| 20260506005402 | 28 | 177 | 1.6 | 19.3 | 0.00 | 0.00 | 0.00 | 76 | 1006.0 |
| 20260506004902 | 28 | 358 | 3.2 | 20.9 | 0.00 | 0.00 | 0.00 | 75 | 1006.0 |
| 20260506004555 | 28 | 153 | 3.2 | 20.9 | 0.00 | 0.00 | 0.00 | 74 | 1006.3 |
| 20260506004402 | 29 | 263 | 3.2 | 20.9 | 0.00 | 0.00 | 0.00 | 74 | 1006.0 |
| 20260506004123 | 29 | 44 | 1.6 | 14.5 | 0.00 | 0.00 | 0.00 | 74 | 1005.9 |
| 20260506003846 | 29 | 313 | 1.6 | 14.5 | 0.00 | 0.00 | 0.00 | 74 | 1005.9 |
| 20260506003128 | 30 | 195 | 1.6 | 14.5 | 0.00 | 0.00 | 0.00 | 73 | 1005.8 |
| 20260506003050 | 29 | 292 | 1.6 | 17.7 | 0.00 | 0.00 | 0.00 | 73 | 1006.1 |
| 20260506002403 | 30 | 352 | 3.2 | 14.5 | 0.00 | 0.00 | 0.00 | 73 | 1005.8 |
| 20260506001902 | 30 | 165 | 6.4 | 16.1 | 0.00 | 0.00 | 0.00 | 72 | 1005.6 |
| 20260506001609 | 30 | 219 | 1.6 | 20.9 | 0.00 | 0.00 | 0.00 | 71 | 1005.9 |
| 20260506001401 | 30 | 223 | 3.2 | 20.9 | 0.00 | 0.00 | 0.00 | 71 | 1005.5 |
| 20260506000900 | 30 | 261 | 6.4 | 20.9 | 0.00 | 0.00 | 0.00 | 71 | 1005.4 |
| 20260506000401 | 30 | 174 | 3.2 | 11.3 | 0.00 | 0.00 | 0.00 | 70 | 1005.4 |
| 20260506000055 | 30 | 233 | 1.6 | 17.7 | 0.00 | 0.00 | 0.00 | 69 | 1005.8 |
| 20260505235901 | 31 | 111 | 3.2 | 17.7 | 0.00 | 0.00 | 0.00 | 69 | 1005.4 |
| 20260505235401 | 31 | 280 | 1.6 | 17.7 | 0.00 | 0.00 | 0.00 | 68 | 1005.4 |
| 20260505234901 | 31 | 139 | 4.8 | 16.1 | 0.00 | 0.00 | 0.00 | 68 | 1005.2 |
| 20260505234553 | 31 | 239 | 1.6 | 11.3 | 0.00 | 0.00 | 0.00 | 67 | 1005.5 |
| 20260505234401 | 31 | 105 | 3.2 | 11.3 | 0.00 | 0.00 | 0.00 | 68 | 1005.3 |
| 20260505233900 | 31 | 134 | 0.0 | 11.3 | 0.00 | 0.00 | 0.00 | 67 | 1005.3 |
| 20260505233403 | 31 | 181 | 3.2 | 16.1 | 0.00 | 0.00 | 0.00 | 67 | 1005.3 |
| 20260505233056 | 31 | 248 | 1.6 | 17.7 | 0.00 | 0.00 | 0.00 | 66 | 1005.5 |
| 20260505232901 | 31 | 214 | 3.2 | 19.3 | 0.00 | 0.00 | 0.00 | 67 | 1005.1 |
| 20260505232401 | 31 | 109 | 4.8 | 19.3 | 0.00 | 0.00 | 0.00 | 67 | 1005.2 |
| 20260505231901 | 31 | 33 | 3.2 | 19.3 | 0.00 | 0.00 | 0.00 | 67 | 1005.1 |
| 20260505231553 | 31 | 16 | 6.4 | 17.7 | 0.00 | 0.00 | 0.00 | 66 | 1005.4 |
| 20260505231400 | 31 | 20 | 9.7 | 16.1 | 0.00 | 0.00 | 0.00 | 67 | 1005.3 |
| 20260505230901 | 31 | 135 | 3.2 | 16.1 | 0.00 | 0.00 | 0.00 | 66 | 1005.2 |
| 20260505230403 | 32 | 294 | 1.6 | 16.1 | 0.00 | 0.00 | 0.00 | 66 | 1005.3 |
| 20260505230056 | 31 | 271 | 1.6 | 17.7 | 0.00 | 0.00 | 0.00 | 65 | 1005.7 |
| 20260505225903 | 32 | 225 | 4.8 | 16.1 | 0.00 | 0.00 | 0.00 | 66 | 1005.3 |
| 20260505225401 | 32 | 322 | 3.2 | 14.5 | 0.00 | 0.00 | 0.00 | 65 | 1005.3 |
| 20260505224901 | 32 | 300 | 3.2 | 16.1 | 0.00 | 0.00 | 0.00 | 65 | 1005.2 |
| 20260505224633 | 32 | 355 | 6.4 | 16.1 | 0.00 | 0.00 | 0.00 | 65 | 1005.2 |
| 20260505224548 | 32 | 316 | 4.8 | 16.1 | 0.00 | 0.00 | 0.00 | 64 | 1005.6 |
| 20260505223900 | 33 | 207 | 1.6 | 14.5 | 0.00 | 0.00 | 0.00 | 65 | 1005.3 |
| 20260505223403 | 32 | 245 | 1.6 | 14.5 | 0.00 | 0.00 | 0.00 | 64 | 1005.4 |
| 20260505223058 | 32 | 198 | 4.8 | 17.7 | 0.00 | 0.00 | 0.00 | 64 | 1005.6 |
| 20260505222903 | 32 | 259 | 4.8 | 16.1 | 0.00 | 0.00 | 0.00 | 64 | 1005.5 |
| 20260505222402 | 32 | 268 | 3.2 | 17.7 | 0.00 | 0.00 | 0.00 | 64 | 1005.4 |
| 20260505221902 | 32 | 238 | 9.7 | 17.7 | 0.00 | 0.00 | 0.00 | 64 | 1005.5 |
| 20260505221620 | 32 | 101 | 6.4 | 17.7 | 0.00 | 0.00 | 0.00 | 63 | 1005.4 |
| 20260505221555 | 32 | 260 | 4.8 | 17.7 | 0.00 | 0.00 | 0.00 | 63 | 1005.6 |
| 20260505220902 | 33 | 200 | 6.4 | 16.1 | 0.00 | 0.00 | 0.00 | 63 | 1005.6 |
| 20260505220403 | 33 | 349 | 6.4 | 19.3 | 0.00 | 0.00 | 0.00 | 63 | 1005.5 |
| 20260505220047 | 32 | 240 | 3.2 | 17.7 | 0.00 | 0.00 | 0.00 | 63 | 1005.8 |
| 20260505215902 | 33 | 347 | 6.4 | 19.3 | 0.00 | 0.00 | 0.00 | 63 | 1005.5 |
| 20260505215628 | 33 | 195 | 6.4 | 17.7 | 0.00 | 0.00 | 0.00 | 63 | 1005.4 |
| 20260505215122 | 33 | 41 | 8.0 | 14.5 | 0.00 | 0.00 | 0.00 | 63 | 1005.6 |
| 20260505214558 | 33 | 179 | 1.6 | 19.3 | 0.00 | 0.00 | 0.00 | 62 | 1005.9 |
| 20260505214402 | 33 | 103 | 1.6 | 19.3 | 0.00 | 0.00 | 0.00 | 63 | 1005.6 |
| 20260505214124 | 33 | 297 | 4.8 | 19.3 | 0.00 | 0.00 | 0.00 | 62 | 1005.8 |
| 20260505213621 | 33 | 348 | 4.8 | 17.7 | 0.00 | 0.00 | 0.00 | 63 | 1005.9 |
| 20260505213058 | 33 | 0 | 4.8 | 17.7 | 0.00 | 0.00 | 0.00 | 62 | 1006.1 |
| 20260505212901 | 33 | 182 | 8.0 | 17.7 | 0.00 | 0.00 | 0.00 | 62 | 1006.0 |
| 20260505212401 | 33 | 60 | 6.4 | 17.7 | 0.00 | 0.00 | 0.00 | 62 | 1005.8 |
| 20260505211900 | 33 | 213 | 6.4 | 14.5 | 0.00 | 0.00 | 0.00 | 62 | 1006.0 |
| 20260505211632 | 33 | 74 | 3.2 | 17.7 | 0.00 | 0.00 | 0.00 | 62 | 1006.1 |
| 20260505211548 | 33 | 82 | 3.2 | 16.1 | 0.00 | 0.00 | 0.00 | 62 | 1006.3 |
| 20260505210901 | 33 | 265 | 1.6 | 17.7 | 0.00 | 0.00 | 0.00 | 62 | 1006.1 |
| 20260505210415 | 33 | 209 | 3.2 | 16.1 | 0.00 | 0.00 | 0.00 | 62 | 1006.2 |
| 20260505210056 | 33 | 0 | 3.2 | 16.1 | 0.00 | 0.00 | 0.00 | 61 | 1006.4 |
| 20260505205903 | 33 | 18 | 3.2 | 16.1 | 0.00 | 0.00 | 0.00 | 64 | 1006.1 |
| 20260505205648 | 33 | 139 | 3.2 | 14.5 | 0.00 | 0.00 | 0.00 | 61 | 1006.1 |
| 20260505205120 | 34 | 223 | 4.8 | 22.5 | 0.00 | 0.00 | 0.00 | 61 | 1006.2 |
| 20260505204549 | 33 | 267 | 3.2 | 20.9 | 0.00 | 0.00 | 0.00 | 60 | 1006.5 |
| 20260505204402 | 34 | 84 | 1.6 | 22.5 | 0.00 | 0.00 | 0.00 | 60 | 1006.2 |
| 20260505203900 | 34 | 296 | 6.4 | 17.7 | 0.00 | 0.00 | 0.00 | 61 | 1006.3 |
| 20260505203401 | 34 | 329 | 3.2 | 17.7 | 0.00 | 0.00 | 0.00 | 59 | 1006.3 |
| 20260505203052 | 33 | 0 | 3.2 | 17.7 | 0.00 | 0.00 | 0.00 | 60 | 1006.6 |
| 20260505202901 | 34 | 67 | 1.6 | 16.1 | 0.00 | 0.00 | 0.00 | 59 | 1006.3 |
| 20260505202401 | 34 | 278 | 1.6 | 16.1 | 0.00 | 0.00 | 0.00 | 60 | 1006.3 |
| 20260505201901 | 34 | 226 | 1.6 | 12.9 | 0.00 | 0.00 | 0.00 | 60 | 1006.4 |
| 20260505201557 | 33 | 26 | 3.2 | 16.1 | 0.00 | 0.00 | 0.00 | 59 | 1006.7 |
| 20260505201359 | 34 | 229 | 3.2 | 16.1 | 0.00 | 0.00 | 0.00 | 59 | 1006.4 |
| 20260505200856 | 34 | 285 | 1.6 | 16.1 | 0.00 | 0.00 | 0.00 | 59 | 1006.5 |
| 20260505200356 | 34 | 290 | 6.4 | 14.5 | 0.00 | 0.00 | 0.00 | 59 | 1006.5 |
| 20260505200048 | 34 | 150 | 1.6 | 19.3 | 0.00 | 0.00 | 0.00 | 59 | 1006.7 |
| 20260505195855 | 34 | 281 | 0.0 | 16.1 | 0.00 | 0.00 | 0.00 | 62 | 1006.5 |
| 20260505195354 | 33 | 194 | 4.8 | 17.7 | 0.00 | 0.00 | 0.00 | 60 | 1006.7 |
| 20260505194854 | 33 | 59 | 8.0 | 17.7 | 0.00 | 0.00 | 0.00 | 61 | 1006.8 |
| 20260505194837 | 33 | 10 | 3.2 | 16.1 | 0.00 | 0.00 | 0.00 | 61 | 1006.8 |
| 20260505194548 | 33 | 308 | 0.0 | 14.5 | 0.00 | 0.00 | 0.00 | 61 | 1007.1 |
| 20260505193853 | 33 | 131 | 6.4 | 16.1 | 0.00 | 0.00 | 0.00 | 62 | 1006.8 |
| 20260505193352 | 33 | 186 | 6.4 | 16.1 | 0.00 | 0.00 | 0.00 | 60 | 1006.8 |
| 20260505193051 | 33 | 63 | 3.2 | 16.1 | 0.00 | 0.00 | 0.00 | 59 | 1007.2 |
| 20260505192852 | 34 | 333 | 1.6 | 17.7 | 0.00 | 0.00 | 0.00 | 59 | 1006.9 |
| 20260505192352 | 34 | 51 | 4.8 | 17.7 | 0.00 | 0.00 | 0.00 | 60 | 1007.2 |
| 20260505191851 | 33 | 177 | 1.6 | 12.9 | 0.00 | 0.00 | 0.00 | 61 | 1007.2 |
| 20260505191556 | 33 | 234 | 1.6 | 12.9 | 0.00 | 0.00 | 0.00 | 60 | 1007.4 |
| 20260505191350 | 33 | 165 | 1.6 | 9.7 | 0.00 | 0.00 | 0.00 | 60 | 1007.3 |
| 20260505191112 | 33 | 202 | 1.6 | 8.0 | 0.00 | 0.00 | 0.00 | 60 | 1007.3 |
| 20260505190608 | 33 | 315 | 1.6 | 17.7 | 0.00 | 0.00 | 0.00 | 61 | 1007.4 |
| 20260505190104 | 33 | 328 | 1.6 | 19.3 | 0.00 | 0.00 | 0.00 | 61 | 1007.8 |
| 20260505185846 | 33 | 17 | 3.2 | 17.7 | 0.00 | 0.00 | 0.00 | 60 | 1007.5 |
| 20260505185346 | 33 | 148 | 3.2 | 14.5 | 0.00 | 0.00 | 0.00 | 60 | 1007.6 |
| 20260505184845 | 33 | 265 | 1.6 | 11.3 | 0.00 | 0.00 | 0.00 | 59 | 1007.6 |
| 20260505184604 | 33 | 356 | 0.0 | 14.5 | 0.00 | 0.00 | 0.00 | 61 | 1007.9 |
| 20260505184344 | 33 | 305 | 0.0 | 14.5 | 0.00 | 0.00 | 0.00 | 62 | 1007.7 |
| 20260505183831 | 33 | 266 | 3.2 | 14.5 | 0.00 | 0.00 | 0.00 | 59 | 1007.8 |
| 20260505183329 | 33 | 200 | 4.8 | 11.3 | 0.00 | 0.00 | 0.00 | 60 | 1007.8 |
| 20260505183052 | 32 | 276 | 4.8 | 16.1 | 0.00 | 0.00 | 0.00 | 61 | 1008.1 |
| 20260505182828 | 33 | 154 | 3.2 | 20.9 | 0.00 | 0.00 | 0.00 | 62 | 1007.9 |
| 20260505182329 | 32 | 243 | 1.6 | 20.9 | 0.00 | 0.00 | 0.00 | 62 | 1008.1 |
| 20260505182117 | 32 | 210 | 8.0 | 20.9 | 0.00 | 0.00 | 0.00 | 61 | 1008.1 |
| 20260505181551 | 32 | 276 | 4.8 | 20.9 | 0.00 | 0.00 | 0.00 | 63 | 1008.3 |
| 20260505181544 | 32 | 93 | 1.6 | 20.9 | 0.00 | 0.00 | 0.00 | 61 | 1008.5 |
| 20260505180828 | 33 | 207 | 1.6 | 16.1 | 0.00 | 0.00 | 0.00 | 62 | 1008.4 |
| 20260505180548 | 32 | 236 | 3.2 | 16.1 | 0.00 | 0.00 | 0.00 | 62 | 1008.5 |
| 20260505180051 | 32 | 0 | 1.6 | 17.7 | 0.00 | 0.00 | 0.00 | 63 | 1008.8 |
| 20260505175829 | 32 | 76 | 4.8 | 17.7 | 0.00 | 0.00 | 0.00 | 63 | 1008.4 |
| 20260505175329 | 32 | 19 | 3.2 | 17.7 | 0.00 | 0.00 | 0.00 | 63 | 1008.5 |
| 20260505174829 | 32 | 13 | 1.6 | 14.5 | 0.00 | 0.00 | 0.00 | 62 | 1008.5 |
| 20260505174550 | 32 | 0 | 1.6 | 16.1 | 0.00 | 0.00 | 0.00 | 62 | 1008.8 |
| 20260505174328 | 32 | 131 | 1.6 | 14.5 | 0.00 | 0.00 | 0.00 | 64 | 1008.7 |
| 20260505173828 | 32 | 282 | 4.8 | 14.5 | 0.00 | 0.00 | 0.00 | 63 | 1008.7 |
| 20260505173329 | 32 | 229 | 3.2 | 16.1 | 0.00 | 0.00 | 0.00 | 65 | 1008.7 |
| 20260505173049 | 31 | 255 | 3.2 | 25.7 | 0.00 | 0.00 | 0.00 | 63 | 1009.0 |
| 20260505172830 | 32 | 119 | 3.2 | 25.7 | 0.00 | 0.00 | 0.00 | 65 | 1008.7 |
| 20260505172331 | 31 | 59 | 3.2 | 25.7 | 0.00 | 0.00 | 0.00 | 65 | 1008.7 |
| 20260505171830 | 31 | 269 | 1.6 | 16.1 | 0.00 | 0.00 | 0.00 | 65 | 1008.6 |
| 20260505171550 | 31 | 0 | 4.8 | 19.3 | 0.00 | 0.00 | 0.00 | 65 | 1008.8 |
| 20260505171330 | 31 | 308 | 4.8 | 19.3 | 0.00 | 0.00 | 0.00 | 66 | 1008.7 |
| 20260505170829 | 31 | 37 | 3.2 | 19.3 | 0.00 | 0.00 | 0.00 | 67 | 1008.6 |
| 20260505170328 | 31 | 105 | 0.0 | 11.3 | 0.00 | 0.00 | 0.00 | 69 | 1008.8 |
| 20260505170057 | 30 | 0 | 3.2 | 16.1 | 0.00 | 0.00 | 0.00 | 67 | 1009.2 |
| 20260505165329 | 31 | 334 | 0.0 | 16.1 | 0.00 | 0.00 | 0.00 | 68 | 1009.0 |
| 20260505164830 | 30 | 1 | 3.2 | 16.1 | 0.00 | 0.00 | 0.00 | 67 | 1009.0 |
| 20260505164549 | 30 | 0 | 0.0 | 9.7 | 0.00 | 0.00 | 0.00 | 67 | 1009.4 |
| 20260505164329 | 30 | 206 | 0.0 | 11.3 | 0.00 | 0.00 | 0.00 | 69 | 1009.1 |
| 20260505163829 | 30 | 307 | 1.6 | 11.3 | 0.00 | 0.00 | 0.00 | 68 | 1009.2 |
| 20260505163328 | 30 | 52 | 0.0 | 12.9 | 0.00 | 0.00 | 0.00 | 69 | 1009.2 |
| 20260505163102 | 30 | 322 | 1.6 | 17.7 | 0.00 | 0.00 | 0.00 | 68 | 1009.5 |
| 20260505163052 | 30 | 229 | 1.6 | 14.5 | 0.00 | 0.00 | 0.00 | 70 | 1009.2 |
| 20260505162816 | 30 | 182 | 0.0 | 17.7 | 0.00 | 0.00 | 0.00 | 71 | 1009.3 |
| 20260505161819 | 30 | 184 | 3.2 | 12.9 | 0.00 | 0.00 | 0.00 | 70 | 1009.4 |
| 20260505161556 | 30 | 0 | 3.2 | 19.3 | 0.00 | 0.00 | 0.00 | 69 | 1009.6 |
| 20260505161317 | 30 | 256 | 3.2 | 19.3 | 0.00 | 0.00 | 0.00 | 69 | 1009.4 |
| 20260505160816 | 30 | 77 | 4.8 | 19.3 | 0.00 | 0.00 | 0.00 | 70 | 1009.4 |
| 20260505160316 | 30 | 311 | 3.2 | 17.7 | 0.00 | 0.00 | 0.00 | 70 | 1009.5 |
| 20260505153106 | 28 | 278 | 1.6 | 16.1 | 0.00 | 0.00 | 0.00 | 74 | 1009.9 |
| 20260505152804 | 28 | 204 | 3.2 | 12.9 | 0.00 | 0.00 | 0.00 | 75 | 1009.5 |
| 20260505152305 | 28 | 214 | 1.6 | 19.3 | 0.00 | 0.00 | 0.00 | 74 | 1009.5 |
| 20260505151803 | 28 | 346 | 4.8 | 19.3 | 0.00 | 0.00 | 0.00 | 75 | 1009.5 |
| 20260505151555 | 28 | 0 | 3.2 | 19.3 | 0.00 | 0.00 | 0.00 | 74 | 1009.8 |
| 20260505151303 | 28 | 201 | 1.6 | 17.7 | 0.00 | 0.00 | 0.00 | 75 | 1009.6 |
| 20260505150803 | 28 | 321 | 1.6 | 17.7 | 0.00 | 0.00 | 0.00 | 75 | 1009.4 |
| 20260505150309 | 28 | 86 | 0.0 | 16.1 | 0.00 | 0.00 | 0.00 | 76 | 1009.6 |
| 20260505150112 | 28 | 0 | 1.6 | 16.1 | 0.00 | 0.00 | 0.00 | 76 | 1010.0 |
| 20260505140302 | 26 | 182 | 3.2 | 14.5 | 0.00 | 0.00 | 0.00 | 82 | 1009.5 |
| 20260505140104 | 26 | 221 | 1.6 | 11.3 | 0.00 | 0.00 | 0.00 | 82 | 1009.9 |
| 20260505124802 | 25 | 293 | 1.6 | 9.7 | 0.00 | 0.00 | 0.00 | 88 | 1009.5 |
| 20260505124548 | 24 | 0 | 0.0 | 8.0 | 0.00 | 0.00 | 0.00 | 88 | 1009.8 |
| 20260505124302 | 25 | 326 | 0.0 | 9.7 | 0.00 | 0.00 | 0.00 | 88 | 1009.4 |
| 20260505123802 | 25 | 105 | 0.0 | 11.3 | 0.00 | 0.00 | 0.00 | 88 | 1009.4 |
| 20260505123302 | 24 | 113 | 1.6 | 11.3 | 0.00 | 0.00 | 0.00 | 88 | 1009.3 |
| 20260505123106 | 24 | 215 | 0.0 | 8.0 | 0.00 | 0.00 | 0.00 | 88 | 1009.6 |
| 20260505123028 | 24 | 245 | 0.0 | 9.7 | 0.00 | 0.00 | 0.00 | 88 | 1009.4 |
| 20260505122305 | 24 | 222 | 0.0 | 9.7 | 0.00 | 0.00 | 0.00 | 88 | 1009.3 |
| 20260505122050 | 24 | 295 | 0.0 | 6.4 | 0.00 | 0.00 | 0.00 | 88 | 1009.3 |
| 20260505121550 | 24 | 0 | 0.0 | 4.8 | 0.00 | 0.00 | 0.00 | 87 | 1009.7 |
| 20260505121302 | 24 | 246 | 0.0 | 8.0 | 0.00 | 0.00 | 0.00 | 88 | 1009.4 |
| 20260505120801 | 24 | 10 | 0.0 | 9.7 | 0.00 | 0.00 | 0.00 | 87 | 1009.2 |
| 20260505120301 | 24 | 323 | 1.6 | 9.7 | 0.00 | 0.00 | 0.00 | 87 | 1009.2 |
| 20260505120053 | 24 | 300 | 0.0 | 11.3 | 0.00 | 0.00 | 0.00 | 87 | 1009.4 |
| 20260505115802 | 25 | 4 | 1.6 | 9.7 | 0.00 | 0.00 | 0.00 | 87 | 1009.1 |
| 20260505115304 | 25 | 151 | 1.6 | 11.3 | 0.00 | 0.00 | 0.00 | 87 | 1009.0 |
| 20260505114803 | 25 | 311 | 1.6 | 12.9 | 0.00 | 0.00 | 0.00 | 87 | 1009.1 |
| 20260505114558 | 24 | 183 | 0.0 | 16.1 | 0.00 | 0.00 | 0.00 | 86 | 1009.5 |
| 20260505114302 | 25 | 285 | 0.0 | 16.1 | 0.00 | 0.00 | 0.00 | 87 | 1009.1 |
| 20260505113802 | 25 | 133 | 3.2 | 16.1 | 0.00 | 0.00 | 0.00 | 87 | 1009.1 |
| 20260505113302 | 25 | 205 | 1.6 | 11.3 | 0.00 | 0.00 | 0.00 | 87 | 1009.2 |
| 20260505113249 | 25 | 311 | 3.2 | 14.5 | 0.00 | 0.00 | 0.00 | 87 | 1009.0 |
| 20260505113052 | 24 | 297 | 1.6 | 12.9 | 0.00 | 0.00 | 0.00 | 87 | 1009.5 |
| 20260505112305 | 25 | 11 | 0.0 | 14.5 | 0.00 | 0.00 | 0.00 | 87 | 1009.1 |
| 20260505111804 | 25 | 71 | 3.2 | 11.3 | 0.00 | 0.00 | 0.00 | 87 | 1009.0 |
| 20260505111550 | 25 | 171 | 3.2 | 12.9 | 0.00 | 0.00 | 0.00 | 87 | 1009.1 |
| 20260505111545 | 24 | 89 | 1.6 | 12.9 | 0.00 | 0.00 | 0.00 | 87 | 1009.3 |
| 20260505110803 | 25 | 346 | 1.6 | 12.9 | 0.00 | 0.00 | 0.00 | 87 | 1009.1 |
| 20260505110316 | 24 | 282 | 1.6 | 9.7 | 0.00 | 0.00 | 0.00 | 87 | 1009.1 |
| 20260505101804 | 24 | 173 | 0.0 | 8.0 | 0.00 | 0.00 | 0.00 | 88 | 1009.2 |
| 20260505101550 | 24 | 0 | 0.0 | 11.3 | 0.00 | 0.00 | 0.00 | 87 | 1009.4 |
| 20260505101304 | 24 | 297 | 0.0 | 12.9 | 0.00 | 0.00 | 0.00 | 88 | 1009.1 |
| 20260505100803 | 24 | 10 | 0.0 | 12.9 | 0.00 | 0.00 | 0.00 | 87 | 1009.1 |
| 20260505100303 | 24 | 87 | 0.0 | 12.9 | 0.00 | 0.00 | 0.00 | 87 | 1009.0 |
| 20260505100054 | 24 | 346 | 0.0 | 17.7 | 0.00 | 0.00 | 0.00 | 87 | 1009.3 |
| 20260505095802 | 24 | 334 | 0.0 | 17.7 | 0.00 | 0.00 | 0.00 | 87 | 1009.0 |
| 20260505095304 | 24 | 189 | 1.6 | 17.7 | 0.00 | 0.00 | 0.00 | 87 | 1008.9 |
| 20260505094803 | 24 | 240 | 0.0 | 11.3 | 0.00 | 0.00 | 0.00 | 87 | 1009.1 |
| 20260505094552 | 24 | 0 | 1.6 | 11.3 | 0.00 | 0.00 | 0.00 | 87 | 1009.3 |
| 20260505094521 | 24 | 50 | 0.0 | 11.3 | 0.00 | 0.00 | 0.00 | 88 | 1008.9 |
| 20260505093802 | 24 | 271 | 0.0 | 9.7 | 0.00 | 0.00 | 0.00 | 87 | 1009.0 |
| 20260505093302 | 24 | 254 | 1.6 | 11.3 | 0.00 | 0.00 | 0.00 | 87 | 1008.9 |
| 20260505093050 | 24 | 52 | 0.0 | 11.3 | 0.00 | 0.00 | 0.00 | 87 | 1009.2 |
| 20260505092801 | 24 | 231 | 1.6 | 11.3 | 0.00 | 0.00 | 0.00 | 87 | 1009.0 |
| 20260505092304 | 24 | 277 | 3.2 | 12.9 | 0.00 | 0.00 | 0.00 | 87 | 1009.0 |
| 20260505091804 | 24 | 304 | 0.0 | 14.5 | 0.00 | 0.00 | 0.00 | 87 | 1009.1 |
| 20260505091553 | 24 | 0 | 0.0 | 12.9 | 0.00 | 0.00 | 0.00 | 87 | 1009.4 |
| 20260505091523 | 24 | 146 | 3.2 | 14.5 | 0.00 | 0.00 | 0.00 | 87 | 1009.2 |
| 20260505090804 | 24 | 286 | 1.6 | 9.7 | 0.00 | 0.00 | 0.00 | 87 | 1009.1 |
| 20260505090303 | 24 | 341 | 1.6 | 9.7 | 0.00 | 0.00 | 0.00 | 87 | 1009.1 |
| 20260505090106 | 24 | 0 | 0.0 | 11.3 | 0.00 | 0.00 | 0.00 | 87 | 1009.4 |
| 20260505085803 | 24 | 252 | 0.0 | 8.0 | 0.00 | 0.00 | 0.00 | 87 | 1009.1 |
| 20260505085304 | 24 | 198 | 1.6 | 8.0 | 0.00 | 0.00 | 0.00 | 87 | 1009.3 |
| 20260505084803 | 24 | 136 | 1.6 | 12.9 | 0.00 | 0.00 | 0.00 | 87 | 1009.4 |
| 20260505084548 | 24 | 0 | 0.0 | 12.9 | 0.00 | 0.00 | 0.00 | 87 | 1009.7 |
| 20260505084304 | 24 | 229 | 0.0 | 12.9 | 0.00 | 0.00 | 0.00 | 87 | 1009.4 |
| 20260505083803 | 24 | 202 | 0.0 | 6.4 | 0.00 | 0.00 | 0.00 | 87 | 1009.5 |
| 20260505083303 | 24 | 179 | 0.0 | 6.4 | 0.00 | 0.00 | 0.00 | 87 | 1009.6 |
| 20260505083105 | 24 | 0 | 0.0 | 8.0 | 0.00 | 0.00 | 0.00 | 87 | 1010.0 |
| 20260505082804 | 24 | 356 | 0.0 | 6.4 | 0.00 | 0.00 | 0.00 | 87 | 1009.6 |
| 20260505082549 | 24 | 262 | 0.0 | 8.0 | 0.00 | 0.00 | 0.00 | 87 | 1009.8 |
| 20260505081804 | 24 | 207 | 1.6 | 8.0 | 0.00 | 0.00 | 0.00 | 87 | 1009.8 |
| 20260505081554 | 24 | 0 | 0.0 | 9.7 | 0.00 | 0.00 | 0.00 | 86 | 1010.1 |
| 20260505081525 | 24 | 191 | 0.0 | 8.0 | 0.00 | 0.00 | 0.00 | 87 | 1009.9 |
| 20260505080803 | 24 | 68 | 0.0 | 8.0 | 0.00 | 0.00 | 0.00 | 87 | 1009.8 |
| 20260505080303 | 24 | 257 | 0.0 | 9.7 | 0.00 | 0.00 | 0.00 | 87 | 1010.0 |
| 20260505080059 | 24 | 0 | 0.0 | 14.5 | 0.00 | 0.00 | 0.00 | 87 | 1010.4 |
| 20260505075803 | 24 | 259 | 0.0 | 11.3 | 0.00 | 0.00 | 0.00 | 87 | 1010.1 |
| 20260505075304 | 24 | 288 | 1.6 | 11.3 | 0.00 | 0.00 | 0.00 | 87 | 1010.0 |
| 20260505074803 | 24 | 155 | 0.0 | 4.8 | 0.00 | 0.00 | 0.00 | 87 | 1010.1 |
| 20260505074552 | 24 | 269 | 0.0 | 12.9 | 0.00 | 0.00 | 0.00 | 87 | 1010.4 |
| 20260505074524 | 24 | 233 | 0.0 | 14.5 | 0.00 | 0.00 | 0.00 | 87 | 1010.0 |
| 20260505073803 | 24 | 229 | 1.6 | 14.5 | 0.00 | 0.00 | 0.00 | 87 | 1010.1 |
| 20260505073304 | 24 | 231 | 0.0 | 6.4 | 0.00 | 0.00 | 0.00 | 87 | 1010.0 |
| 20260505073058 | 24 | 0 | 0.0 | 8.0 | 0.00 | 0.00 | 0.00 | 86 | 1010.2 |
| 20260505072804 | 24 | 282 | 0.0 | 6.4 | 0.00 | 0.00 | 0.00 | 87 | 1009.9 |
| 20260505072305 | 24 | 255 | 1.6 | 11.3 | 0.00 | 0.00 | 0.00 | 87 | 1010.0 |
| 20260505072051 | 24 | 300 | 0.0 | 11.3 | 0.00 | 0.00 | 0.00 | 87 | 1010.3 |
| 20260505071548 | 24 | 0 | 0.0 | 6.4 | 0.00 | 0.00 | 0.00 | 86 | 1010.5 |
| 20260505071525 | 24 | 20 | 0.0 | 6.4 | 0.00 | 0.00 | 0.00 | 87 | 1010.3 |
| 20260505070803 | 24 | 231 | 0.0 | 6.4 | 0.00 | 0.00 | 0.00 | 87 | 1010.5 |
| 20260505070303 | 24 | 323 | 0.0 | 6.4 | 0.00 | 0.00 | 0.00 | 87 | 1010.7 |
| 20260505070054 | 23 | 0 | 0.0 | 9.7 | 0.00 | 0.00 | 0.00 | 86 | 1011.0 |
| 20260505065803 | 24 | 129 | 0.0 | 6.4 | 0.00 | 0.00 | 0.00 | 87 | 1010.8 |
| 20260505065304 | 24 | 335 | 1.6 | 8.0 | 0.00 | 0.00 | 0.00 | 87 | 1010.8 |
| 20260505064807 | 24 | 101 | 0.0 | 19.3 | 0.00 | 0.00 | 0.00 | 87 | 1010.8 |
| 20260505064552 | 23 | 0 | 1.6 | 19.3 | 0.00 | 0.00 | 0.00 | 86 | 1011.2 |
| 20260505064522 | 24 | 329 | 3.2 | 19.3 | 0.00 | 0.00 | 0.00 | 87 | 1010.9 |
| 20260505063803 | 24 | 162 | 1.6 | 11.3 | 0.00 | 0.00 | 0.00 | 87 | 1011.0 |
| 20260505063303 | 24 | 120 | 3.2 | 11.3 | 0.00 | 0.00 | 0.00 | 87 | 1011.0 |
| 20260505063048 | 23 | 0 | 0.0 | 11.3 | 0.00 | 0.00 | 0.00 | 86 | 1011.3 |
| 20260505062801 | 24 | 251 | 1.6 | 11.3 | 0.00 | 0.00 | 0.00 | 87 | 1010.9 |
| 20260505062301 | 24 | 277 | 3.2 | 11.3 | 0.00 | 0.00 | 0.00 | 86 | 1010.9 |
| 20260505061803 | 24 | 184 | 0.0 | 12.9 | 0.00 | 0.00 | 0.00 | 86 | 1011.0 |
| 20260505061550 | 23 | 20 | 0.0 | 12.9 | 0.00 | 0.00 | 0.00 | 86 | 1011.4 |
| 20260505061302 | 24 | 352 | 1.6 | 12.9 | 0.00 | 0.00 | 0.00 | 86 | 1011.1 |
| 20260505060802 | 24 | 260 | 0.0 | 9.7 | 0.00 | 0.00 | 0.00 | 86 | 1011.2 |
| 20260505060302 | 24 | 340 | 0.0 | 9.7 | 0.00 | 0.00 | 0.00 | 86 | 1011.3 |
| 20260505060057 | 23 | 0 | 0.0 | 9.7 | 0.00 | 0.00 | 0.00 | 86 | 1011.6 |
| 20260505055802 | 24 | 257 | 0.0 | 9.7 | 0.00 | 0.00 | 0.00 | 86 | 1011.3 |
| 20260505055303 | 23 | 134 | 1.6 | 9.7 | 0.00 | 0.00 | 0.00 | 86 | 1011.3 |
| 20260505054804 | 23 | 106 | 0.0 | 9.7 | 0.00 | 0.00 | 0.00 | 86 | 1011.4 |
| 20260505054547 | 23 | 0 | 0.0 | 12.9 | 0.00 | 0.00 | 0.00 | 85 | 1011.8 |
| 20260505054302 | 23 | 349 | 0.0 | 9.7 | 0.00 | 0.00 | 0.00 | 86 | 1011.4 |
| 20260505053803 | 23 | 76 | 1.6 | 9.7 | 0.00 | 0.00 | 0.00 | 86 | 1011.6 |
| 20260505053302 | 23 | 234 | 1.6 | 9.7 | 0.00 | 0.00 | 0.00 | 86 | 1011.6 |
| 20260505053053 | 23 | 0 | 0.0 | 6.4 | 0.00 | 0.00 | 0.00 | 85 | 1011.9 |
| 20260505052802 | 24 | 206 | 0.0 | 6.4 | 0.00 | 0.00 | 0.00 | 85 | 1011.7 |
| 20260505052304 | 24 | 132 | 0.0 | 8.0 | 0.00 | 0.00 | 0.00 | 85 | 1011.8 |
| 20260505051803 | 24 | 322 | 1.6 | 9.7 | 0.00 | 0.00 | 0.00 | 85 | 1011.8 |
| 20260505051752 | 24 | 294 | 1.6 | 9.7 | 0.00 | 0.00 | 0.00 | 85 | 1011.8 |
| 20260505051551 | 23 | 0 | 0.0 | 11.3 | 0.00 | 0.00 | 0.00 | 85 | 1012.1 |
| 20260505050803 | 24 | 176 | 0.0 | 9.7 | 0.00 | 0.00 | 0.00 | 85 | 1011.7 |
| 20260505050303 | 24 | 267 | 0.0 | 4.8 | 0.00 | 0.00 | 0.00 | 85 | 1011.9 |
| 20260505050122 | 23 | 0 | 0.0 | 12.9 | 0.00 | 0.00 | 0.00 | 84 | 1012.1 |
| 20260505041604 | 23 | 0 | 0.0 | 14.5 | 0.00 | 0.00 | 0.00 | 82 | 1012.2 |
| 20260505041320 | 24 | 290 | 1.6 | 14.5 | 0.00 | 0.00 | 0.00 | 83 | 1012.1 |
| 20260505041021 | 24 | 355 | 0.0 | 14.5 | 0.00 | 0.00 | 0.00 | 82 | 1012.0 |
| 20260505040327 | 24 | 295 | 0.0 | 9.7 | 0.00 | 0.00 | 0.00 | 82 | 1012.1 |
| 20260505040057 | 23 | 0 | 0.0 | 9.7 | 0.00 | 0.00 | 0.00 | 82 | 1012.4 |
| 20260505035802 | 24 | 74 | 0.0 | 9.7 | 0.00 | 0.00 | 0.00 | 82 | 1012.2 |
| 20260505035304 | 24 | 257 | 0.0 | 9.7 | 0.00 | 0.00 | 0.00 | 82 | 1012.3 |
| 20260505035023 | 24 | 278 | 0.0 | 9.7 | 0.00 | 0.00 | 0.00 | 81 | 1012.2 |
| 20260505034551 | 23 | 0 | 0.0 | 9.7 | 0.00 | 0.00 | 0.00 | 81 | 1012.3 |
| 20260505034303 | 24 | 274 | 0.0 | 9.7 | 0.00 | 0.00 | 0.00 | 81 | 1012.2 |
| 20260505033802 | 24 | 130 | 1.6 | 9.7 | 0.00 | 0.00 | 0.00 | 81 | 1012.0 |
| 20260505033323 | 24 | 284 | 0.0 | 11.3 | 0.00 | 0.00 | 0.00 | 81 | 1012.1 |
| 20260505033051 | 24 | 231 | 0.0 | 9.7 | 0.00 | 0.00 | 0.00 | 80 | 1012.4 |
| 20260505032802 | 24 | 347 | 1.6 | 11.3 | 0.00 | 0.00 | 0.00 | 81 | 1012.1 |
| 20260505032304 | 24 | 110 | 0.0 | 6.4 | 0.00 | 0.00 | 0.00 | 80 | 1012.0 |
| 20260505032029 | 25 | 267 | 0.0 | 14.5 | 0.00 | 0.00 | 0.00 | 80 | 1012.0 |
| 20260505031550 | 24 | 256 | 0.0 | 12.9 | 0.00 | 0.00 | 0.00 | 79 | 1012.2 |
| 20260505031303 | 25 | 105 | 1.6 | 14.5 | 0.00 | 0.00 | 0.00 | 79 | 1012.0 |
| 20260505030803 | 25 | 218 | 0.0 | 9.7 | 0.00 | 0.00 | 0.00 | 79 | 1012.3 |
| 20260505030315 | 25 | 150 | 0.0 | 9.7 | 0.00 | 0.00 | 0.00 | 79 | 1012.1 |
| 20260505030048 | 24 | 0 | 0.0 | 16.1 | 0.00 | 0.00 | 0.00 | 78 | 1012.3 |
| 20260505030021 | 25 | 259 | 1.6 | 11.3 | 0.00 | 0.00 | 0.00 | 79 | 1012.1 |
| 20260505025304 | 25 | 330 | 0.0 | 12.9 | 0.00 | 0.00 | 0.00 | 78 | 1012.0 |
| 20260505025028 | 25 | 218 | 0.0 | 17.7 | 0.00 | 0.00 | 0.00 | 78 | 1011.9 |
| 20260505024551 | 25 | 0 | 0.0 | 16.1 | 0.00 | 0.00 | 0.00 | 78 | 1012.2 |
| 20260505024301 | 25 | 255 | 0.0 | 17.7 | 0.00 | 0.00 | 0.00 | 78 | 1011.9 |
| 20260505023801 | 25 | 283 | 1.6 | 12.9 | 0.00 | 0.00 | 0.00 | 78 | 1011.8 |
| 20260505023304 | 25 | 248 | 0.0 | 14.5 | 0.00 | 0.00 | 0.00 | 78 | 1011.7 |
| 20260505023054 | 25 | 0 | 0.0 | 14.5 | 0.00 | 0.00 | 0.00 | 77 | 1011.7 |
| 20260505022800 | 25 | 250 | 0.0 | 14.5 | 0.00 | 0.00 | 0.00 | 78 | 1011.6 |
| 20260505022301 | 25 | 302 | 0.0 | 19.3 | 0.00 | 0.00 | 0.00 | 78 | 1011.7 |
| 20260505021800 | 25 | 162 | 0.0 | 19.3 | 0.00 | 0.00 | 0.00 | 77 | 1011.7 |
| 20260505021552 | 25 | 0 | 1.6 | 17.7 | 0.00 | 0.00 | 0.00 | 77 | 1011.7 |
| 20260505021302 | 25 | 131 | 4.8 | 17.7 | 0.00 | 0.00 | 0.00 | 77 | 1011.4 |
| 20260505021027 | 25 | 252 | 0.0 | 16.1 | 0.00 | 0.00 | 0.00 | 78 | 1011.4 |
| 20260505020302 | 25 | 200 | 3.2 | 16.1 | 0.00 | 0.00 | 0.00 | 77 | 1011.4 |
| 20260505020045 | 25 | 0 | 0.0 | 14.5 | 0.00 | 0.00 | 0.00 | 77 | 1011.5 |
| 20260505020028 | 25 | 175 | 1.6 | 16.1 | 0.00 | 0.00 | 0.00 | 77 | 1011.2 |